星链-5714 (STARLINK-5714 )

导读

STARLINK-5714是美国SpaceX公司星链(Starlink)项目的低轨通信卫星,于2023年2月12日发射入轨,属于星链第二代星座的V1.5批次卫星。作为星链全球高速互联网星座的组成部分,它配备激光星间链路模块,可实现卫星间直接通信,助力构建覆盖全球的低延迟宽带网络,服务偏远地区、海上和空中等网络覆盖不足区域。该卫星运行在近地轨道,是目前全球最大卫星星座的一员,推动了全球卫星互联网的覆盖进程。

基本信息
目录编号:
55614
目录名称:
STARLINK-5714
国际标识:
2023-020AX
轨道中心:
EARTH
卫星名称:
星链-5714
卫星全名:
星链-5714 (STARLINK-5714 )
卫星状态:
在轨 (已飞行1219 天)
发射日期:
2023-02-12 UTC
国别 :
美国 (US)
星等 :
--
轨道信息
数据来源 国际轨道数据
星历时间: 2026-06-15T00:24:57+0800
10小时前
查看轨道信息
半长轴: 6861.201km
偏心率: 0.0001023
轨道倾角: 43.002°
近地点辐角 314.391°
升交点赤经 151.679°
平近点角 45.686°
近地点: 482.362km
远地点: 483.766km
周期: 94.267分钟
每日圈数: 15.275753
详细信息
固有亮度:
5
最大亮度:
2.5
卫星平台:
Starlink v1.5
覆盖范围:
全球
运营商:
太空探索技术公司
运营商所在国:
美国
制造商(研发单位):
太空探索技术公司
制造商所在国:
美国
使用方式:
暂无
卫星简介
星链(Starlink)计划是由太空探索技术公司(SpaceX)提出的一个巨型低轨卫星互联网星座项目,计划在2019年至2024年间在太空搭建由约1.2万颗卫星组成的“星链”网络,其中1584颗将部署在地球上空550千米处的近地轨道,并从2020年开始工作。该卫星仍在工作。
2D轨道图
3D轨道图
轨道高度分析图
轨道倾角分析图
轨道综合分析图
查看轨道综合分析图